Regional Weather Roundup
Issued by NWS

Home | Current Version | Previous Version | Graphics & Text | Print | Product List | Glossary On
Versions: 1 2 3 4 5 6 7 8 9 10 11 12 13 14 15 16 17 18 19 20 21 22 23 24 25 26 27 28 29 30 31 32 33 34 35 36 37 38 39 40 41 42 43 44 45 46 47 48 49 50
923
ASUS43 KLOT 300503
RWRIL

ILLINOIS REGIONAL WEATHER ROUNDUP
NATIONAL WEATHER SERVICE CHICAGO/ROMEOVILLE IL
1200 AM CDT MON MAY 30 2016

NOTE: "FAIR" INDICATES FEW OR NO CLOUDS BELOW 12,000 FEET WITH NO
SIGNIFICANT WEATHER AND/OR OBSTRUCTIONS TO VISIBILITY.

* THESE STATIONS ARE NOT UNDER NWS QUALITY CONTROL. THEY ALSO MAY NOT
  REPORT WEATHER SUCH AS PRECIPITATION OR FOG.

ILZ001-002-007-009-015-016-024-300600-
NORTHWEST ILLINOIS

CITY           SKY/WX    TMP DP  RH WIND       PRES   REMARKS
MOLINE         MOCLDY    72  56  57 CALM      30.02S
STERLING*      CLEAR     67  59  75 W3        30.02F
$$

ILZ003-004-008-010-011-017-018-300600-
NORTH CENTRAL ILLINOIS

CITY           SKY/WX    TMP DP  RH WIND       PRES   REMARKS
ROCKFORD       CLEAR     67  57  70 W3        30.03R
FREEPORT*      CLEAR     65  57  73 SW6       30.03S
ROCHELLE*      CLEAR     64  60  86 W5        30.02F
$$

ILZ005-006-012>014-019>023-300600-
NORTHEAST ILLINOIS

CITY           SKY/WX    TMP DP  RH WIND       PRES   REMARKS
CHICAGO-OHARE  CLEAR     67  58  72 W5        30.00S
CHICAGO-MIDWAY CLEAR     71  57  61 W6        30.00S
AURORA         CLEAR     65  60  84 CALM      30.01F
LANSING*       CLEAR     62  56  81 CALM      30.01S
WAUKEGAN       CLEAR     67  58  72 SW3       29.98S
DUPAGE AIRPORT CLEAR     66  57  72 SW6       30.00S
WHEELING       CLEAR     70  57  63 W3        30.00S
MORRIS*        CLEAR     66  56  68 W5        30.01S
NORTHERLY ISL    N/A     73  55  53 W3          N/A
NORTHERLY ISL    N/A     73  55  53 W3          N/A
$$

LMZ740>746-300600-
SOUTHERN LAKE MICHIGAN

STATION/POSITION SKY/WX   TEMP    WIND        PRES    VSBY  WAVE
                          AIR SEA DIR/SP/G                  HT/PER
                          (F)     (DEG/KT/KT) (MB)    (MI)  (FT/S)
SOUTHERN BUOY              57 51  230/  6/  8 1014.6          1
WILMETTE HARBOR            64 54  250/  6/  6   N/A           0
HARRISON CRIB              76     280/ 10/ 11   N/A
BURNHAM HARBOR             73     230/  4/  8   N/A
CALUMET HARBOR             73     220/  4/  6 1015.4
BURNS HARBOR               68     240/  6/  8 1016.3S
MICHIGAN CITY              69     210/  9/  9   N/A
MICHIGAN CITY 6N           62 59  230/  4/  4   N/A           1
ST. JOSEPH                 62 63  240/  4/  6   N/A           1
$$

ILZ025>027-034>036-040-047-049-050-058-095>099-300600-
WEST-CENTRAL ILLINOIS

CITY           SKY/WX    TMP DP  RH WIND       PRES   REMARKS
QUINCY         PTCLDY    69  60  73 S5        30.04F
MACOMB*        CLOUDY    67  61  80 SW3       30.07S
PITTSFIELD*    MOCLDY    70  64  81 CALM      30.06F
$$

ILZ028>032-037-038-041>044-048-051>054-059>061-300600-
CENTRAL ILLINOIS

CITY           SKY/WX    TMP DP  RH WIND       PRES   REMARKS
BLOOMINGTON    CLOUDY    71  61  70 W8        30.07R
DECATUR        CLOUDY    67  58  72 CALM      30.05S
PEORIA         CLEAR     66  58  75 CALM      30.04S
LINCOLN*       CLEAR     71  59  66 CALM      30.05R
SPRINGFIELD    PTCLDY    67  60  78 CALM      30.05S
TAYLORVILLE    NOT AVBL
$$

ILZ033-039-045-046-055>057-062-063-300600-
EAST-CENTRAL ILLINOIS

CITY           SKY/WX    TMP DP  RH WIND       PRES   REMARKS
CHAMPAIGN      CLOUDY    68  58  70 W6        30.05S
MATTOON        CLEAR     66  56  70 CALM      30.03F
$$

ILZ079-100>102-300600-
SOUTHWEST ILLINOIS

CITY           SKY/WX    TMP DP  RH WIND       PRES   REMARKS
ALTON          CLEAR     66  62  85 CALM      30.05F
BELLEVILLE     CLOUDY    68  67  97 CALM      30.04S
CAHOKIA*       CLOUDY    68  62  81 CALM      30.05S
SPARTA*        CLOUDY    71  64  77 CALM      30.06F
$$

ILZ064>066-069>071-074>076-080>082-084>086-088>090-092>094-300600-
SOUTH-CENTRAL ILLINOIS

CITY           SKY/WX    TMP DP  RH WIND       PRES   REMARKS
CARBONDALE     PTCLDY    66  63  90 CALM      30.05F
CAIRO*         CLEAR     68  67  98 CALM      30.06R
EFFINGHAM*     CLOUDY    66  65  97 CALM      30.06S
MT. VERNON     CLOUDY    64  61  88 CALM      30.06S
SALEM*         CLOUDY    69  64  82 CALM      30.05F
$$

ILZ067-068-072-073-078-083-087-091-300600-
SOUTHEAST ILLINOIS

CITY           SKY/WX    TMP DP  RH WIND       PRES   REMARKS
LAWRENCEVILLE  MOCLDY    70  64  81 CALM      30.04S
FLORA*         MOCLDY    72  62  71 CALM      30.04F
HARRISBURG*    PTCLDY    69  64  86 CALM      30.05S
ROBINSON*      MOCLDY    65  61  89 NW3       30.05S
CARMI*         CLEAR     69  64  84 CALM      30.04S
$$

ABBREVIATIONS USED IN REMARKS
   TC - TEMPERATURE IN CELSIUS
  WCI - WIND CHILL INDEX
   HX - HEAT INDEX
  VSB - VISIBILITY
$$





USA.gov is the U.S. government's official web portal to all federal, state and local government web resources and services.